When you browse on this site, cookies collect data to enhance your experience and personalize the content and advertising you see.
Visit our Privacy Policy to learn more. By continuing to use the site, you agree to this use of cookies and data.
  • Em Portugal
  • Lista de países
  • Para 7 dias
  • Temperatura da água
  • Mapa do tempo
  • Widgets de tempo
  • user-avatar
    Iniciar Sessão

    Previsão horária em Sent-Eli

    Hoje, 29 Março, Domingo

    Tempo Temperatura Precipitação Vento Pressão Humidade
    00:00 +27°C° 1.3 mm 7 m/s 754 mmHg 93%
    01:00 +27°C° 1.3 mm 7 m/s 754 mmHg 94%
    02:00 +26°C° 1.3 mm 7 m/s 754 mmHg 94%
    03:00 +26°C° 1.2 mm 7 m/s 754 mmHg 94%
    04:00 +26°C° 1.2 mm 7 m/s 754 mmHg 94%
    05:00 +26°C° 1.2 mm 7 m/s 754 mmHg 94%
    06:00 +27°C° 0.7 mm 6 m/s 754 mmHg 92%
    07:00 +28°C° 0.7 mm 6 m/s 755 mmHg 91%
    08:00 +28°C° 0.7 mm 6 m/s 756 mmHg 89%
    09:00 +29°C° 0.1 mm 6 m/s 756 mmHg 83%
    10:00 +30°C° 0.1 mm 6 m/s 756 mmHg 78%
    11:00 +32°C° 0.1 mm 6 m/s 755 mmHg 72%
    12:00 +30°C° 0 mm 6 m/s 755 mmHg 73%
    13:00 +30°C° 0 mm 6 m/s 754 mmHg 75%
    14:00 +29°C° 0 mm 5 m/s 753 mmHg 76%
    15:00 +29°C° 0 mm 6 m/s 753 mmHg 79%
    16:00 +28°C° 0 mm 6 m/s 753 mmHg 81%
    17:00 +28°C° 0 mm 6 m/s 753 mmHg 83%
    18:00 +28°C° 0 mm 6 m/s 753 mmHg 84%
    19:00 +28°C° 0 mm 6 m/s 754 mmHg 84%
    20:00 +28°C° 0 mm 6 m/s 754 mmHg 85%
    21:00 +27°C° 0 mm 6 m/s 755 mmHg 86%
    22:00 +27°C° 0 mm 5 m/s 755 mmHg 86%
    23:00 +27°C° 0 mm 5 m/s 755 mmHg 87%

    Amanhã, 30 Março, Segunda-feira

    Tempo Temperatura Precipitação Vento Pressão Humidade
    00:00 +27°C° 0.1 mm 5 m/s 755 mmHg 88%
    01:00 +27°C° 0.1 mm 5 m/s 754 mmHg 88%
    02:00 +27°C° 0.1 mm 5 m/s 753 mmHg 89%
    03:00 +27°C° 0.2 mm 5 m/s 753 mmHg 90%
    04:00 +27°C° 0.2 mm 5 m/s 753 mmHg 90%
    05:00 +26°C° 0.2 mm 5 m/s 753 mmHg 90%
    06:00 +27°C° 0.2 mm 5 m/s 754 mmHg 89%
    07:00 +28°C° 0.2 mm 5 m/s 755 mmHg 87%
    08:00 +28°C° 0.2 mm 5 m/s 755 mmHg 86%
    09:00 +28°C° 0.5 mm 5 m/s 755 mmHg 84%
    10:00 +29°C° 0.5 mm 5 m/s 755 mmHg 82%
    11:00 +29°C° 0.5 mm 5 m/s 755 mmHg 80%
    12:00 +29°C° 0 mm 5 m/s 754 mmHg 77%
    13:00 +30°C° 0 mm 5 m/s 753 mmHg 74%
    14:00 +32°C° 0 mm 5 m/s 752 mmHg 70%
    15:00 +30°C° 0 mm 5 m/s 752 mmHg 74%
    16:00 +29°C° 0 mm 5 m/s 752 mmHg 78%
    17:00 +28°C° 0 mm 5 m/s 752 mmHg 82%
    18:00 +28°C° 0 mm 5 m/s 752 mmHg 84%
    19:00 +27°C° 0 mm 4 m/s 753 mmHg 86%
    20:00 +27°C° 0 mm 4 m/s 753 mmHg 89%
    21:00 +27°C° 0 mm 4 m/s 753 mmHg 90%
    22:00 +26°C° 0 mm 4 m/s 753 mmHg 91%
    23:00 +26°C° 0 mm 4 m/s 754 mmHg 91%

    Depois de amanhã, 31 Março, Terça-feira

    Tempo Temperatura Precipitação Vento Pressão Humidade
    00:00 +26°C° 0.1 mm 4 m/s 753 mmHg 91%
    01:00 +26°C° 0.1 mm 4 m/s 753 mmHg 91%
    02:00 +26°C° 0.1 mm 4 m/s 752 mmHg 92%
    03:00 +26°C° 0.2 mm 4 m/s 752 mmHg 92%
    04:00 +26°C° 0.2 mm 4 m/s 752 mmHg 93%
    05:00 +26°C° 0.2 mm 4 m/s 753 mmHg 93%
    06:00 +27°C° 0.3 mm 4 m/s 753 mmHg 91%
    07:00 +28°C° 0.3 mm 4 m/s 754 mmHg 90%
    08:00 +28°C° 0.3 mm 4 m/s 754 mmHg 88%
    09:00 +29°C° 0.3 mm 4 m/s 754 mmHg 84%
    10:00 +30°C° 0.3 mm 4 m/s 754 mmHg 80%
    11:00 +30°C° 0.3 mm 4 m/s 754 mmHg 75%
    12:00 +30°C° 0.1 mm 4 m/s 753 mmHg 74%
    13:00 +30°C° 0.1 mm 4 m/s 752 mmHg 72%
    14:00 +30°C° 0.1 mm 5 m/s 751 mmHg 70%
    15:00 +30°C° 0 mm 5 m/s 751 mmHg 74%
    16:00 +29°C° 0 mm 5 m/s 751 mmHg 77%
    17:00 +28°C° 0 mm 5 m/s 751 mmHg 80%
    18:00 +28°C° 0 mm 5 m/s 752 mmHg 83%
    19:00 +27°C° 0 mm 5 m/s 752 mmHg 86%
    20:00 +27°C° 0 mm 5 m/s 753 mmHg 89%
    21:00 +27°C° 0.1 mm 5 m/s 753 mmHg 90%
    22:00 +27°C° 0.1 mm 5 m/s 753 mmHg 90%
    23:00 +27°C° 0.1 mm 5 m/s 754 mmHg 91%

    1 Abril, Quarta-feira

    Tempo Temperatura Precipitação Vento Pressão Humidade
    00:00 +26°C° 0.1 mm 5 m/s 753 mmHg 91%
    01:00 +26°C° 0.1 mm 5 m/s 753 mmHg 92%
    02:00 +26°C° 0.1 mm 5 m/s 752 mmHg 92%
    03:00 +26°C° 0.2 mm 5 m/s 752 mmHg 92%
    04:00 +26°C° 0.2 mm 5 m/s 752 mmHg 93%
    05:00 +26°C° 0.2 mm 5 m/s 753 mmHg 93%
    06:00 +27°C° 0.4 mm 6 m/s 753 mmHg 92%
    07:00 +27°C° 0.4 mm 6 m/s 754 mmHg 90%
    08:00 +28°C° 0.4 mm 6 m/s 754 mmHg 89%
    09:00 +28°C° 0.8 mm 6 m/s 754 mmHg 88%
    10:00 +29°C° 0.8 mm 6 m/s 754 mmHg 86%
    11:00 +29°C° 0.8 mm 6 m/s 754 mmHg 85%
    12:00 +29°C° 0.3 mm 6 m/s 753 mmHg 82%
    13:00 +30°C° 0.3 mm 6 m/s 753 mmHg 80%
    14:00 +30°C° 0.3 mm 7 m/s 752 mmHg 78%
    15:00 +29°C° 0.1 mm 7 m/s 752 mmHg 80%
    16:00 +29°C° 0.1 mm 7 m/s 752 mmHg 81%
    17:00 +28°C° 0.1 mm 7 m/s 752 mmHg 83%
    18:00 +28°C° 0.1 mm 7 m/s 753 mmHg 85%
    19:00 +28°C° 0.1 mm 6 m/s 753 mmHg 86%
    20:00 +27°C° 0.1 mm 6 m/s 754 mmHg 87%
    21:00 +27°C° 0.1 mm 6 m/s 754 mmHg 88%
    22:00 +27°C° 0.1 mm 6 m/s 754 mmHg 88%
    23:00 +27°C° 0.1 mm 6 m/s 755 mmHg 88%

    2 Abril, Quinta-feira

    Tempo Temperatura Precipitação Vento Pressão Humidade
    00:00 +27°C° 0.2 mm 6 m/s 754 mmHg 89%
    01:00 +27°C° 0.2 mm 6 m/s 754 mmHg 90%
    02:00 +27°C° 0.2 mm 6 m/s 753 mmHg 90%
    03:00 +27°C° 0.1 mm 6 m/s 753 mmHg 90%
    04:00 +27°C° 0.1 mm 5 m/s 754 mmHg 90%
    05:00 +27°C° 0.1 mm 5 m/s 754 mmHg 90%
    06:00 +28°C° 0.1 mm 6 m/s 754 mmHg 88%
    07:00 +28°C° 0.1 mm 6 m/s 755 mmHg 85%
    08:00 +29°C° 0.1 mm 6 m/s 755 mmHg 82%
    09:00 +30°C° 0.1 mm 6 m/s 755 mmHg 79%
    10:00 +30°C° 0.1 mm 6 m/s 755 mmHg 76%
    11:00 +30°C° 0.1 mm 6 m/s 755 mmHg 72%
    12:00 +30°C° 0.1 mm 6 m/s 755 mmHg 72%
    13:00 +30°C° 0.1 mm 6 m/s 754 mmHg 72%
    14:00 +30°C° 0.1 mm 6 m/s 753 mmHg 71%
    15:00 +30°C° 0.1 mm 6 m/s 753 mmHg 75%
    16:00 +29°C° 0.1 mm 6 m/s 753 mmHg 78%
    17:00 +28°C° 0.1 mm 6 m/s 753 mmHg 82%
    18:00 +28°C° 0 mm 6 m/s 754 mmHg 83%
    19:00 +28°C° 0 mm 6 m/s 754 mmHg 84%
    20:00 +27°C° 0 mm 6 m/s 754 mmHg 85%
    21:00 +27°C° 0 mm 6 m/s 755 mmHg 85%
    22:00 +27°C° 0 mm 6 m/s 755 mmHg 85%
    23:00 +27°C° 0 mm 6 m/s 755 mmHg 85%

    3 Abril, Sexta-feira

    Tempo Temperatura Precipitação Vento Pressão Humidade
    00:00 +27°C° 0 mm 6 m/s 755 mmHg 85%
    01:00 +27°C° 0 mm 6 m/s 754 mmHg 85%
    02:00 +27°C° 0 mm 5 m/s 754 mmHg 85%
    03:00 +27°C° 0.1 mm 5 m/s 754 mmHg 85%
    04:00 +27°C° 0.1 mm 5 m/s 754 mmHg 86%
    05:00 +27°C° 0.1 mm 5 m/s 754 mmHg 86%
    06:00 +28°C° 0 mm 5 m/s 754 mmHg 83%
    07:00 +28°C° 0 mm 5 m/s 755 mmHg 81%
    08:00 +29°C° 0 mm 5 m/s 755 mmHg 78%
    09:00 +30°C° 0 mm 5 m/s 755 mmHg 74%
    10:00 +32°C° 0 mm 5 m/s 755 mmHg 69%
    11:00 +32°C° 0 mm 4 m/s 755 mmHg 65%
    12:00 +32°C° 0 mm 4 m/s 754 mmHg 66%
    13:00 +32°C° 0 mm 5 m/s 754 mmHg 68%
    14:00 +32°C° 0 mm 5 m/s 753 mmHg 69%
    15:00 +30°C° 0.1 mm 5 m/s 753 mmHg 74%
    16:00 +29°C° 0.1 mm 5 m/s 753 mmHg 79%
    17:00 +28°C° 0.1 mm 5 m/s 753 mmHg 84%
    18:00 +28°C° 0.4 mm 5 m/s 753 mmHg 87%
    19:00 +28°C° 0.4 mm 5 m/s 754 mmHg 90%
    20:00 +27°C° 0.4 mm 6 m/s 754 mmHg 93%
    21:00 +27°C° 0.7 mm 6 m/s 754 mmHg 93%
    22:00 +27°C° 0.7 mm 6 m/s 754 mmHg 93%
    23:00 +27°C° 0.7 mm 6 m/s 755 mmHg 94%
    Mostrar mais